"2009-04-04 00:00:30",769297,9.96,52.16,4.855,0.985,14.22,104.0284,9.59,10.88,37.02,0,110.2,13.35,10.37,14.2
"2009-04-04 00:01:00",769298,9.38,47.97,4.125,0.916,14.79,104.0284,9.59,10.9,36.89,0,110.2,13.35,10.37,10.0
"2009-04-04 00:01:30",769299,9.54,47.93,3.935,0.299,14.18,104.0284,9.59,10.91,36.91,0,110.2,13.35,10.37,9.9
"2009-04-04 00:02:00",769300,6.852,37.63,6.998,1.238,11.12,104.027,9.58,10.63,36.8,0,110.2,13.35,10.37,359.6
"2009-04-04 00:02:30",769301,5.687,29.33,3.618,0.764,9.26,104.0205,9.57,10.67,37.24,0,110.2,13.38,10.35,351.3
"2009-04-04 00:03:00",769302,5.787,28.68,2.418,0.574,9.13,104.0143,9.55,10.62,37.23,0,110.2,13.38,10.34,350.7
"2009-04-04 00:03:30",769303,7.411,36.57,6.35,1.218,12.2,103.9988,9.51,10.73,37.34,0,110.1,13.35,10.30,358.6
"2009-04-04 00:04:00",769304,7.928,40.09,6.047,1.404,13.23,103.9946,9.5,10.8,37.6,0,110.2,13.35,10.29,2.1
"2009-04-04 00:04:30",769305,8.38,42.18,6.199,1.203,13.48,103.9946,9.5,10.79,37.64,0,110.2,13.35,10.29,4.2
"2009-04-04 00:05:00",769306,8.82,43.04,6.318,1.495,13.01,103.9946,9.5,10.79,37.69,0,110.1,13.35,10.29,5.0
"2009-04-04 00:05:30",769307,7.095,33.69,4.273,1.208,9.31,103.9946,9.5,10.56,37.43,0,110.2,13.35,10.29,355.7
"2009-04-04 00:06:00",769308,8.52,38.94,6.401,1.165,10.15,103.9932,9.5,10.58,37.47,0,110.1,13.35,10.28,0.9
"2009-04-04 00:06:30",769309,7.899,36.27,6.598,1.759,10.17,103.9867,9.48,10.6,37.47,0,110.1,13.35,10.27,358.3
"2009-04-04 00:07:00",769310,8.46,40.54,5.921,1.163,13.24,103.9825,9.47,10.75,37.4,0,110.1,13.35,10.25,2.5
"2009-04-04 00:07:30",769311,8.91,42.69,5.434,1.084,13.11,103.976,9.45,10.77,37.45,0,110.1,13.36,10.24,4.7
"2009-04-04 00:08:00",769312,8.61,46.39,6.063,1.148,13.21,103.967,9.43,10.76,37.26,0,110.1,13.36,10.21,8.4
"2009-04-04 00:08:30",769313,8.8,43.71,7.466,1.633,12.42,103.9619,9.42,10.64,37.26,0,110.1,13.35,10.20,5.7
"2009-04-04 00:09:00",769314,6.702,31.83,3.585,1.147,9.03,103.964,9.42,10.5,37.03,0,110.1,13.39,10.21,353.8
"2009-04-04 00:09:30",769315,8.27,40.92,5.841,1.187,11.4,103.9642,9.42,10.53,37.14,0,110.1,13.36,10.21,2.9
"2009-04-04 00:10:00",769316,8.3,39.83,6.189,1.217,12.51,103.9657,9.43,10.69,37.38,0,110.1,13.36,10.21,1.8
"2009-04-04 00:10:30",769317,8.89,39.02,5.783,1.163,11.36,103.9654,9.43,10.62,37.36,0,110.1,13.36,10.21,1.0
"2009-04-04 00:11:00",769318,9.94,45.82,4.864,1.177,13.54,103.9666,9.43,10.72,37.3,0,110.1,13.36,10.21,7.8
"2009-04-04 00:11:30",769319,9.64,44.7,6.448,1.342,12.76,103.9713,9.44,10.67,37.26,0,110.1,13.36,10.23,6.7
"2009-04-04 00:12:00",769320,7.06,34.34,5.221,1.312,10.18,103.971,9.44,10.44,36.8,0,110.1,13.36,10.22,356.3
"2009-04-04 00:12:30",769321,8.98,41.01,5.333,0.955,10.89,103.9726,9.44,10.58,36.98,0,110.1,13.36,10.23,3.0
"2009-04-04 00:13:00",769322,7.165,34.01,5.99,1.412,10.32,103.9681,9.43,10.53,36.68,0,110.1,13.36,10.22,356.0
"2009-04-04 00:13:30",769323,10.05,43.43,6.342,1.355,12.41,103.9685,9.43,10.57,36.65,0,110.1,13.36,10.22,5.4
"2009-04-04 00:14:00",769324,9.94,44.14,5.618,1.048,13.59,103.9671,9.43,10.64,36.72,0,110.1,13.36,10.21,6.1
"2009-04-04 00:14:30",769325,10.72,44.89,5.719,1.151,13.28,103.9664,9.43,10.69,36.7,0,110.1,13.36,10.21,6.9
"2009-04-04 00:15:00",769326,10.13,45.8,6.562,1.425,12.01,103.9639,9.42,10.56,36.71,0,110.1,13.36,10.21,7.8
"2009-04-04 00:15:30",769327,9.72,44.8,7.088,1.339,11.23,103.9591,9.41,10.53,36.8,0,110.1,13.36,10.19,6.8
"2009-04-04 00:16:00",769328,9.1,41.39,5.836,1.3,10.89,103.9575,9.41,10.53,36.81,0,110.1,13.36,10.19,3.4
"2009-04-04 00:16:30",769329,8.96,39.27,7.097,1.192,11.06,103.957,9.4,10.54,36.4,0,110.1,13.35,10.19,1.3
"2009-04-04 00:17:00",769330,10.53,46.01,6.389,1.129,12.61,103.9576,9.41,10.52,36.65,0,110.1,13.35,10.19,8.0
"2009-04-04 00:17:30",769331,10.9,48.07,3.982,0.782,14.41,103.9571,9.4,10.7,36.61,0,110.1,13.35,10.19,10.1
"2009-04-04 00:18:00",769332,8.46,40.33,5.762,0.921,12.58,103.9585,9.41,10.67,36.54,0,110.1,13.35,10.19,2.3
"2009-04-04 00:18:30",769333,9.67,41.66,7.246,1.479,11.29,103.9606,9.41,10.44,36.81,0,110.1,13.35,10.20,3.7
"2009-04-04 00:19:00",769334,8.89,40.07,6.745,1.273,11.23,103.9606,9.41,10.51,36.99,0,110.1,13.35,10.20,2.1
"2009-04-04 00:19:30",769335,7.136,32.6,1.455,0.593,9.48,103.9615,9.42,10.38,36.15,0,110.1,13.39,10.20,354.6
"2009-04-04 00:20:00",769336,9.36,42.04,7.068,1.544,13.09,103.9606,9.41,10.69,35.98,0,110.1,13.35,10.20,4.0
"2009-04-04 00:20:30",769337,9.82,42.7,5.086,1.294,14.1,103.9606,9.41,10.67,35.62,0,110.1,13.35,10.20,4.7
"2009-04-04 00:21:00",769338,9.19,41.19,5.876,0.936,13.11,103.9615,9.42,10.65,34.92,0,110.1,13.36,10.20,3.2
"2009-04-04 00:21:30",769339,9.32,41.85,6.374,1.44,12.98,103.9615,9.42,10.59,35.05,0,110.1,13.36,10.20,3.8
"2009-04-04 00:22:00",769340,8.55,35.83,4.653,1.161,10.05,103.9621,9.42,10.48,35.26,0,110.1,13.36,10.20,357.8
"2009-04-04 00:22:30",769341,7.882,33.86,2.84,0.712,9.5,103.9621,9.42,10.34,35.22,0,110.1,13.37,10.20,355.9
"2009-04-04 00:23:00",769342,8.68,37.83,6.223,1.236,11.03,103.9607,9.41,10.48,35.21,0,110.1,13.37,10.20,359.8
"2009-04-04 00:23:30",769343,10.04,45.51,5.287,0.901,14.18,103.9559,9.4,10.64,35.63,0,110.1,13.37,10.19,7.5
"2009-04-04 00:24:00",769344,9.87,45.42,4.841,1.001,13.87,103.9539,9.4,10.65,35.92,0,110.1,13.37,10.18,7.4
"2009-04-04 00:24:30",769345,9.58,44.42,6.351,1.407,13.11,103.9519,9.39,10.63,35.72,0,110.1,13.37,10.18,6.4
"2009-04-04 00:25:00",769346,8.42,37.88,4.889,1.027,9.88,103.9474,9.38,10.41,35.57,0,110.1,13.37,10.16,359.9
"2009-04-04 00:25:30",769347,7.533,35.3,2.644,0.512,9.45,103.9389,9.36,10.36,35.4,0,110.1,13.4,10.14,357.3
"2009-04-04 00:26:00",769348,7.399,36.61,0.876,0.201,9.52,103.9361,9.35,10.35,35.62,0,110.1,13.4,10.14,358.6
"2009-04-04 00:26:30",769349,8.73,46.38,6.455,1.195,13.07,103.935,9.35,10.59,35.96,0,110.1,13.37,10.13,8.4
"2009-04-04 00:27:00",769350,9.42,49.9,4.402,0.99,13.95,103.9338,9.34,10.63,36.14,0,110.1,13.37,10.13,11.9
"2009-04-04 00:27:30",769351,8.98,47.35,6.27,1.116,13.26,103.9319,9.34,10.57,35.48,0,110.1,13.37,10.12,9.3
"2009-04-04 00:28:00",769352,8.19,46.13,6.618,1.306,11.24,103.9302,9.34,10.41,35.12,0,110.1,13.37,10.12,8.1
"2009-04-04 00:28:30",769353,7.082,41.4,1.065,0.14,9.22,103.9285,9.33,10.32,35.29,0,110.1,13.4,10.12,3.4
"2009-04-04 00:29:00",769354,7.712,44.64,4.493,1.136,10.11,103.9282,9.33,10.3,35.43,0,110.1,13.37,10.12,6.6
"2009-04-04 00:29:30",769355,8.76,49.43,6.515,1.269,12.5,103.9282,9.33,10.46,35.8,0,110.2,13.37,10.12,11.4
"2009-04-04 00:30:00",769356,9.45,53.93,6.342,1.119,14.53,103.9282,9.33,10.62,36.12,0,110.1,13.37,10.12,15.9
"2009-04-04 00:30:30",769357,9.58,57.08,2.706,0.787,13.96,103.9282,9.33,10.56,36.27,0,110.1,13.37,10.12,19.1
"2009-04-04 00:31:00",769358,8.62,50.89,6.809,1.301,12.48,103.9282,9.33,10.57,36.52,0,110.1,13.37,10.12,12.9
"2009-04-04 00:31:30",769359,7.737,42.88,0.673,0.272,9.23,103.9282,9.33,10.35,36,0,110.1,13.41,10.12,4.9
"2009-04-04 00:32:00",769360,8.59,43.26,1.182,0.293,9.74,103.9282,9.33,10.36,35.99,0,110.1,13.41,10.12,5.3
"2009-04-04 00:32:30",769361,12.5,54.6,5.997,1.197,13.42,103.9291,9.33,10.48,36.28,0,110.1,13.37,10.12,16.6
"2009-04-04 00:33:00",769362,14.79,57.24,10.6,1.316,12.94,103.9285,9.33,10.63,37.33,0,110.1,13.37,10.12,19.2
"2009-04-04 00:33:30",769363,17.46,68.07,6.562,1.27,12.36,103.9003,9.26,10.61,37.37,0,110.2,13.37,10.04,30.1
"2009-04-04 00:34:00",769364,19.57,68.56,4.492,0.907,10.58,103.8596,9.16,10.58,37.2,0,110.1,13.36,9.94,30.6
"2009-04-04 00:34:30",769365,20.21,70.13,4.207,0.702,-46.51,103.7865,8.97,10.5,37.2,0,110.1,13.36,9.75,32.1
"2009-04-04 00:35:00",769366,20.03,69.29,4.066,0.777,-46.41,103.707,8.76,10.39,37.44,0,110.1,13.36,9.55,31.3
"2009-04-04 00:35:30",769367,20,69.26,4.5,0.606,-15.27,103.6254,8.56,10.26,38.14,0,110.1,13.36,9.34,31.3
"2009-04-04 00:36:00",769368,19.07,74.97,4.234,0.807,11.93,103.5458,8.35,10.1,38.7,0,110.1,13.36,9.13,37.0
"2009-04-04 00:36:30",769369,18.47,75.64,4.089,1.008,11.79,103.4764,8.18,9.94,39.29,0,110.1,13.36,8.96,37.6
"2009-04-04 00:37:00",769370,18.68,75.9,3.058,0.936,11.76,103.4115,8.01,9.83,39.47,0,110.1,13.36,8.79,37.9
"2009-04-04 00:37:30",769371,18.81,76.25,3.073,1.027,11.63,103.3418,7.831,9.67,39.97,0,110.1,13.36,8.61,38.2
"2009-04-04 00:38:00",769372,16.97,75.96,3.987,0.959,11.46,103.2783,7.669,9.52,40.55,0,110.1,13.37,8.45,38.0
"2009-04-04 00:38:30",769373,16,74.58,3.954,1.25,11.52,103.2261,7.535,9.41,41.15,0,110.1,13.37,8.31,36.6
"2009-04-04 00:39:00",769374,15.68,76.94,4.499,1.215,11.5,103.1722,7.398,9.28,41.74,0,110.1,13.37,8.18,38.9
"2009-04-04 00:39:30",769375,17.02,74.58,2.967,1.305,11.16,103.1268,7.282,9.12,42.04,0,110.2,13.37,8.06,36.6
"2009-04-04 00:40:00",769376,16.95,76.08,3.653,1.049,11.26,103.0803,7.163,9,41.97,0,110.1,13.37,7.94,38.1
"2009-04-04 00:40:30",769377,17.1,75.6,4.67,0.95,11.18,103.0352,7.047,8.87,42.61,0,110.1,13.37,7.82,37.6
"2009-04-04 00:41:00",769378,17.37,75.4,3.911,1.021,11.39,102.9986,6.954,8.75,42.94,0,110.1,13.37,7.73,37.4
"2009-04-04 00:41:30",769379,17.71,74.52,4.322,0.939,11.2,102.9651,6.868,8.63,43.51,0,110.1,13.37,7.64,36.5
"2009-04-04 00:42:00",769380,17.83,74.15,4.672,1.154,11.17,102.935,6.792,8.55,43.86,0,110.1,13.37,7.57,36.2
"2009-04-04 00:42:30",769381,17.53,74.63,4.185,1.008,11.27,102.9061,6.718,8.44,44.45,0,110.1,13.37,7.49,36.6
"2009-04-04 00:43:00",769382,18.14,71.91,4.133,0.59,11.54,102.8777,6.645,8.35,44.87,0,110,13.37,7.42,33.9
"2009-04-04 00:43:30",769383,18.75,71.3,4.219,0.644,11.42,102.8533,6.583,8.26,45.36,0,110,13.37,7.36,33.3
"2009-04-04 00:44:00",769384,17.89,71.49,4.166,0.904,11.56,102.8254,6.512,8.17,45.65,0,110,13.37,7.29,33.5
"2009-04-04 00:44:30",769385,18.32,75.1,4.128,1.111,11.65,102.7924,6.427,8.08,45.58,0,110,13.38,7.20,37.1
"2009-04-04 00:45:00",769386,19.35,75.74,2.757,0.939,11.84,102.762,6.349,7.993,45.35,0,110,13.38,7.12,37.7
"2009-04-04 00:45:30",769387,19.54,74.11,3.474,0.828,11.96,102.7295,6.266,7.9,45.1,0,110,13.38,7.04,36.1
"2009-04-04 00:46:00",769388,18.45,71.84,3.329,0.947,12.03,102.7064,6.207,7.803,45.82,0,110,13.38,6.98,33.8
"2009-04-04 00:46:30",769389,18.79,73.08,3.509,0.871,11.98,102.6764,6.131,7.731,45.66,0,110,13.38,6.90,35.1
"2009-04-04 00:47:00",769390,18.47,69.88,3.424,1.053,12.14,102.653,6.071,7.648,46.14,0,110,13.38,6.84,31.9
"2009-04-04 00:47:30",769391,19.27,70.18,3.4,1.048,11.96,102.6414,6.041,7.588,46.71,0,110,13.38,6.81,32.2
"2009-04-04 00:48:00",769392,18.78,67.5,3.406,1.011,12.09,102.6135,5.97,7.537,46.72,0,110,13.38,6.74,29.5
"2009-04-04 00:48:30",769393,18.18,69.92,3.579,1.087,11.95,102.6073,5.954,7.489,47.31,0,110,13.38,6.73,31.9
"2009-04-04 00:49:00",769394,18.21,67.59,3.61,1.047,12.1,102.5785,5.881,7.439,47.93,0,110,13.38,6.65,29.6
"2009-04-04 00:49:30",769395,18.23,66.45,3.014,0.867,11.97,102.5748,5.871,7.378,48.41,0,110,13.38,6.64,28.4
"2009-04-04 00:50:00",769396,17.9,63.9,3.85,1.074,12.23,102.5541,5.818,7.345,48.84,0,110,13.39,6.59,25.9
"2009-04-04 00:50:30",769397,18.64,64.46,4.551,0.724,12.29,102.5523,5.814,7.286,49,0,110,13.39,6.59,26.5
"2009-04-04 00:51:00",769398,17.93,63.7,4.425,1.064,12.14,102.5364,5.773,7.241,49.35,0,110,13.39,6.55,25.7
"2009-04-04 00:51:30",769399,17.64,61.55,4.475,0.794,11.94,102.5343,5.768,7.184,49.52,0,110,13.39,6.54,23.5
"2009-04-04 00:52:00",769400,16.9,61.14,4.844,1.005,11.84,102.5324,5.763,7.155,49.95,0,110,13.39,6.54,23.1
"2009-04-04 00:52:30",769401,16.61,60.17,3.528,0.939,11.72,102.5124,5.712,7.112,50.32,0,110,13.39,6.48,22.2
"2009-04-04 00:53:00",769402,16.96,59.08,2.186,1.149,11.59,102.5076,5.7,7.097,50.47,0,110,13.39,6.47,21.1
"2009-04-04 00:53:30",769403,16.28,57.99,3.536,0.748,11.45,102.5071,5.698,7.058,50.9,0,110,13.39,6.47,20.0
"2009-04-04 00:54:00",769404,15.34,53.7,2.806,1.086,11.37,102.4864,5.646,7.03,51.6,0,109.9,13.39,6.42,15.7
"2009-04-04 00:54:30",769405,16.52,52.4,4.076,1.843,11.31,102.4737,5.613,7.006,51.67,0,109.9,13.4,6.38,14.4
"2009-04-04 00:55:00",769406,16.68,57.39,4.088,0.936,11.51,102.4737,5.613,6.97,51.85,0,109.9,13.4,6.38,19.4
"2009-04-04 00:55:30",769407,17.35,55.27,4.704,0.872,11.33,102.4672,5.596,6.945,51.98,0,110,13.4,6.37,17.3
"2009-04-04 00:56:00",769408,16.09,55.67,4.979,0.769,11.4,102.4469,5.545,6.921,52.22,0,109.9,13.4,6.32,17.7
"2009-04-04 00:56:30",769409,17.62,55.76,3.879,1.308,11.42,102.4398,5.526,6.906,52.7,0,109.9,13.4,6.30,17.8
"2009-04-04 00:57:00",769410,17.32,58.2,3.568,1.192,11.46,102.437,5.519,6.863,52.91,0,109.9,13.4,6.29,20.2
"2009-04-04 00:57:30",769411,16.47,55.86,2.833,0.959,11.24,102.4153,5.464,6.85,53.39,0,109.9,13.4,6.23,17.9
"2009-04-04 00:58:00",769412,17.01,58.46,4.23,1.3,11.21,102.406,5.44,6.833,53.8,0,109.9,13.41,6.21,20.5
"2009-04-04 00:58:30",769413,16.65,61.81,3.253,1.084,11.19,102.3975,5.418,6.803,53.57,0,109.9,13.41,6.19,23.8
"2009-04-04 00:59:00",769414,18.74,63.79,2.964,0.958,11.24,102.3749,5.361,6.761,53.37,0,109.9,13.41,6.13,25.8
"2009-04-04 00:59:30",769415,18.89,67.23,3.628,0.725,11.31,102.3722,5.354,6.725,52.71,0,109.9,13.41,6.12,29.2
"2009-04-04 01:00:00",769416,19.29,67.26,3.488,0.816,11.26,102.348,5.292,6.692,52.1,0,109.9,13.41,6.06,29.3
"2009-04-04 01:00:30",769417,19.54,67.9,3.942,0.701,11.38,102.3486,5.293,6.675,51.5,0,109.9,13.41,6.06,29.9
"2009-04-04 01:01:00",769418,19.33,68.82,3.363,0.699,11.65,102.3486,5.294,6.637,51.13,0,109.9,13.41,6.06,30.8
"2009-04-04 01:01:30",769419,19.52,69.55,4.083,0.672,11.68,102.355,5.31,6.614,50.28,0,110,13.41,6.08,31.6
"2009-04-04 01:02:00",769420,20.07,69.96,3.977,0.83,11.59,102.363,5.33,6.602,50.02,0,109.9,13.41,6.10,32.0
"2009-04-04 01:02:30",769421,20.4,71.32,3.264,0.943,11.51,102.3645,5.334,6.598,50.38,0,109.9,13.41,6.10,33.3
"2009-04-04 01:03:00",769422,20.82,72.13,3.105,0.936,11.62,102.3682,5.343,6.602,49.86,0,109.9,13.41,6.11,34.1
"2009-04-04 01:03:30",769423,20.23,73.88,2.74,0.73,11.66,102.3934,5.408,6.598,49.54,0,109.9,13.41,6.18,35.9
"2009-04-04 01:04:00",769424,20.31,74.35,3.198,0.925,11.55,102.403,5.432,6.626,49.1,0,109.9,13.41,6.20,36.3
"2009-04-04 01:04:30",769425,20.54,69.29,3.318,0.816,11.28,102.4192,5.474,6.632,49.99,0,109.9,13.41,6.24,31.3
"2009-04-04 01:05:00",769426,20.63,66.04,3.547,0.798,11.32,102.4378,5.521,6.673,51.05,0,109.9,13.41,6.29,28.0
"2009-04-04 01:05:30",769427,21.04,65.42,3.499,0.826,11.36,102.4407,5.529,6.695,51.26,0,109.9,13.41,6.30,27.4
"2009-04-04 01:06:00",769428,21.13,63.51,3.844,0.828,11.49,102.4407,5.529,6.699,51.08,0,109.9,13.41,6.30,25.5
"2009-04-04 01:06:30",769429,20.77,59.94,3.392,0.824,11.55,102.4407,5.529,6.726,51.17,0,109.9,13.41,6.30,21.9
"2009-04-04 01:07:00",769430,20.62,60.4,3.827,0.811,11.75,102.4407,5.529,6.717,51.4,0,109.9,13.41,6.30,22.4
"2009-04-04 01:07:30",769431,21.27,60.14,3.576,0.752,11.7,102.4407,5.529,6.716,51.41,0,109.9,13.41,6.30,22.1
"2009-04-04 01:08:00",769432,20.65,57.93,3.544,0.886,11.74,102.4398,5.526,6.733,51.67,0,109.9,13.41,6.30,19.9
"2009-04-04 01:08:30",769433,20.92,56.52,3.344,1.004,11.81,102.4342,5.512,6.712,51.62,0,109.9,13.41,6.28,18.5
"2009-04-04 01:09:00",769434,20.4,55.28,2.056,0.933,11.72,102.4288,5.498,6.713,52.08,0,109.9,13.41,6.27,17.3
"2009-04-04 01:09:30",769435,20.86,54.72,4.633,0.783,12.04,102.424,5.486,6.709,51.85,0,109.9,13.41,6.26,16.7
"2009-04-04 01:10:00",769436,20.49,52.34,4.415,1.171,11.81,102.4209,5.478,6.717,51.76,0,109.9,13.41,6.25,14.3
"2009-04-04 01:10:30",769437,20.91,57.04,5.713,0.936,11.74,102.4172,5.469,6.683,52.04,0,109.9,13.41,6.24,19.0
"2009-04-04 01:11:00",769438,19.29,59.69,4.278,1.003,12.02,102.4217,5.48,6.707,51.47,0,109.9,13.41,6.25,21.7
"2009-04-04 01:11:30",769439,19.82,55.98,3.617,1.302,11.72,102.4319,5.506,6.723,52.51,0,109.9,13.41,6.28,18.0
"2009-04-04 01:12:00",769440,19.59,53.39,3.235,0.963,11.51,102.4331,5.509,6.735,53.38,0,109.9,13.42,6.28,15.4
"2009-04-04 01:12:30",769441,19.67,55.85,4.817,1.139,12.01,102.4333,5.51,6.729,52.87,0,109.9,13.42,6.28,17.8
"2009-04-04 01:13:00",769442,19.08,56.38,3.878,0.839,11.99,102.4401,5.527,6.745,53.33,0,109.9,13.42,6.30,18.4
"2009-04-04 01:13:30",769443,18.47,57.38,3.872,1.209,11.49,102.4407,5.529,6.743,53.34,0,109.9,13.42,6.30,19.4
"2009-04-04 01:14:00",769444,16.85,57.06,5.877,0.843,11.31,102.4407,5.529,6.748,53.36,0,109.9,13.42,6.30,19.1
"2009-04-04 01:14:30",769445,16.98,56.73,5.268,0.972,11.38,102.4413,5.53,6.781,53.83,0,109.9,13.42,6.30,18.7
"2009-04-04 01:15:00",769446,18.16,54.73,4.046,1.087,11.41,102.4424,5.533,6.771,54.09,0,109.9,13.42,6.30,16.7
"2009-04-04 01:15:30",769447,18.31,55.59,4.043,1.017,11.11,102.4374,5.52,6.766,54.63,0,109.9,13.42,6.29,17.6
"2009-04-04 01:16:00",769448,18.52,56.73,3.766,1.302,11.12,102.4145,5.462,6.751,54.74,0,109.9,13.42,6.23,18.7
"2009-04-04 01:16:30",769449,18.21,56.07,4.254,1.108,11.31,102.4114,5.454,6.735,55.05,0,109.9,13.42,6.22,18.1
"2009-04-04 01:17:00",769450,17.06,61.71,3.117,1.149,11.53,102.4086,5.447,6.717,54.3,0,109.9,13.42,6.22,23.7
"2009-04-04 01:17:30",769451,17.36,55.25,5.762,1.001,10.91,102.3965,5.416,6.712,55.29,0,109.8,13.42,6.19,17.2
"2009-04-04 01:18:00",769452,17.07,58.67,4.457,0.885,11.07,102.3816,5.378,6.698,56.31,0,109.9,13.42,6.15,20.7
"2009-04-04 01:18:30",769453,17.64,52.26,4.226,0.801,10.69,102.3799,5.373,6.67,56.68,0,109.9,13.42,6.14,14.3
"2009-04-04 01:19:00",769454,19.05,49.62,2.988,0.91,10.41,102.3508,5.299,6.648,58.7,0,109.9,13.42,6.07,11.6
"2009-04-04 01:19:30",769455,18.22,51.79,3.334,0.661,10.59,102.3172,5.213,6.595,58.76,0,109.9,13.42,5.98,13.8
"2009-04-04 01:20:00",769456,17.69,52.79,3.794,1.021,10.88,102.285,5.131,6.56,58.44,0,109.9,13.42,5.90,14.8
"2009-04-04 01:20:30",769457,17.47,54.98,3.978,0.897,10.92,102.2557,5.056,6.496,57.8,0,109.9,13.42,5.83,17.0
"2009-04-04 01:21:00",769458,17.48,57.06,5.177,1.07,10.86,102.2436,5.025,6.451,58.38,0,109.9,13.43,5.79,19.1
"2009-04-04 01:21:30",769459,16.93,54.65,4.112,1.106,10.87,102.2213,4.968,6.398,58.63,0,109.9,13.42,5.74,16.7
"2009-04-04 01:22:00",769460,17.6,59.04,4.25,0.936,10.93,102.2163,4.956,6.35,58.44,0,109.9,13.42,5.72,21.0
"2009-04-04 01:22:30",769461,18.43,60.13,3.938,1.211,10.74,102.1946,4.9,6.311,58.74,0,109.9,13.42,5.67,22.1
"2009-04-04 01:23:00",769462,18.99,62.53,3.916,1.252,10.76,102.1937,4.898,6.27,59.85,0,109.9,13.42,5.67,24.5
"2009-04-04 01:23:30",769463,19.2,57.46,4.711,0.859,10.67,102.1658,4.827,6.234,60.89,0,109.9,13.42,5.60,19.5
"2009-04-04 01:24:00",769464,17.62,60.45,3.998,0.889,10.8,102.1608,4.814,6.189,60.95,0,109.9,13.42,5.58,22.5
"2009-04-04 01:24:30",769465,17.72,60.35,4.695,1.052,10.72,102.1374,4.754,6.152,61.21,0,109.9,13.42,5.52,22.3
"2009-04-04 01:25:00",769466,17.79,57.86,2.617,1.067,10.88,102.1326,4.742,6.126,61.22,0,109.9,13.42,5.51,19.9
"2009-04-04 01:25:30",769467,18.06,52.68,4.45,0.872,11.07,102.1202,4.71,6.061,60.79,0,109.9,13.42,5.48,14.7
"2009-04-04 01:26:00",769468,18.84,54.25,3.904,0.924,10.89,102.1094,4.683,6.052,60.3,0,109.9,13.42,5.45,16.2
"2009-04-04 01:26:30",769469,18.95,55.35,5.061,0.881,10.8,102.1021,4.664,6.007,61.33,0,109.9,13.42,5.43,17.3
"2009-04-04 01:27:00",769470,19.25,53.74,2.953,0.895,10.74,102.0996,4.657,5.985,62.28,0,109.9,13.43,5.43,15.7
"2009-04-04 01:27:30",769471,18.94,51.94,4.151,0.706,10.47,102.0775,4.601,5.958,62.88,0,109.9,13.43,5.37,13.9
"2009-04-04 01:28:00",769472,18.79,51.99,3.944,0.837,10.14,102.0609,4.559,5.934,64.97,0,109.9,13.43,5.33,14.0
"2009-04-04 01:28:30",769473,19.1,48.94,3.338,1.083,10.53,102.0253,4.468,5.883,65.92,0,109.9,13.43,5.24,10.9
"2009-04-04 01:29:00",769474,19.5,47.67,3.795,1.038,11.12,101.9995,4.402,5.837,64.25,0,109.9,13.43,5.17,9.7
"2009-04-04 01:29:30",769475,19.21,47.28,2.831,0.836,10.96,101.9738,4.336,5.759,63.59,0,109.9,13.43,5.10,9.3
"2009-04-04 01:30:00",769476,18.54,50.8,3.715,0.732,11.4,101.9668,4.318,5.704,62.38,0,109.9,13.43,5.09,12.8
"2009-04-04 01:30:30",769477,18,49.71,3.546,0.886,10.91,101.9668,4.318,5.676,62.02,0,109.8,13.43,5.09,11.7
"2009-04-04 01:31:00",769478,18.54,47.92,4.191,0.911,11.22,101.9668,4.318,5.655,62.96,0,109.8,13.43,5.09,9.9
"2009-04-04 01:31:30",769479,18.2,48.3,3.804,0.762,11.04,101.9668,4.318,5.633,62.43,0,109.9,13.43,5.09,10.3
"2009-04-04 01:32:00",769480,18.02,51.86,3.264,0.876,10.66,101.9668,4.318,5.643,63.79,0,109.9,13.43,5.09,13.9
"2009-04-04 01:32:30",769481,17.56,53.07,3.379,1.043,10.66,101.967,4.319,5.636,64.02,0,109.9,13.43,5.09,15.1
"2009-04-04 01:33:00",769482,18.29,53.13,2.805,0.83,10.87,101.9668,4.318,5.623,63.77,0,109.8,13.43,5.09,15.1
"2009-04-04 01:33:30",769483,19.02,52.76,2.725,0.797,10.63,101.9668,4.318,5.6,63.53,0,109.8,13.43,5.09,14.8
"2009-04-04 01:34:00",769484,18.58,53.68,3.96,0.797,10.83,101.967,4.319,5.613,63.34,0,109.8,13.43,5.09,15.7
"2009-04-04 01:34:30",769485,18.43,55.36,4.059,0.796,11.06,101.971,4.329,5.607,62.98,0,109.8,13.43,5.10,17.4
"2009-04-04 01:35:00",769486,18.04,55.51,2.665,0.858,11.16,101.9817,4.357,5.607,62.88,0,109.8,13.43,5.12,17.5
"2009-04-04 01:35:30",769487,17.91,54.78,4.183,0.711,11.02,101.9939,4.388,5.617,63.18,0,109.9,13.43,5.16,16.8
"2009-04-04 01:36:00",769488,17.97,53.59,3.591,0.833,10.83,102.0007,4.405,5.618,63.18,0,109.8,13.43,5.17,15.6
"2009-04-04 01:36:30",769489,18.33,51.6,4.146,0.668,10.84,102.0007,4.405,5.628,63.27,0,109.8,13.44,5.17,13.6
"2009-04-04 01:37:00",769490,18.76,52.41,4.113,0.774,10.91,102.0007,4.405,5.629,63.6,0,109.8,13.44,5.17,14.4
"2009-04-04 01:37:30",769491,18.4,54.7,3.515,0.737,10.83,102.0007,4.405,5.635,62.62,0,109.8,13.44,5.17,16.7
"2009-04-04 01:38:00",769492,18.11,55.31,3.35,0.884,10.69,102.0007,4.405,5.651,62.49,0,109.8,13.43,5.17,17.3
"2009-04-04 01:38:30",769493,18.76,55.86,2.869,0.916,10.79,102.0007,4.405,5.64,62.72,0,109.8,13.43,5.17,17.9
"2009-04-04 01:39:00",769494,18.86,54.18,2.591,0.915,10.86,102.0007,4.405,5.659,62.91,0,109.8,13.43,5.17,16.2
"2009-04-04 01:39:30",769495,19.54,55.83,2.113,0.816,10.54,102.0007,4.405,5.648,63.74,0,109.9,13.43,5.17,17.8
"2009-04-04 01:40:00",769496,18.58,54.79,4.147,0.831,10.82,102.0007,4.405,5.663,63.98,0,109.8,13.43,5.17,16.8
"2009-04-04 01:40:30",769497,18.78,56.42,4.052,1.011,10.51,101.9919,4.383,5.647,64.41,0,109.8,13.43,5.15,18.4
"2009-04-04 01:41:00",769498,18.76,57.53,3.068,0.822,10.6,101.9676,4.32,5.625,65.08,0,109.8,13.43,5.09,19.5
"2009-04-04 01:41:30",769499,17.96,56.2,3.608,0.754,10.69,101.9651,4.314,5.625,64.97,0,109.8,13.43,5.08,18.2
"2009-04-04 01:42:00",769500,18.11,55.44,3.305,0.832,10.81,101.9459,4.265,5.582,64.4,0,109.8,13.43,5.03,17.4
"2009-04-04 01:42:30",769501,18.28,53.26,3.571,0.72,10.71,101.9329,4.232,5.56,64.41,0,109.8,13.43,5.00,15.3
"2009-04-04 01:43:00",769502,18.17,54.73,2.965,0.743,10.74,101.9329,4.232,5.525,64.67,0,109.8,13.43,5.00,16.7
"2009-04-04 01:43:30",769503,18.27,51.55,3.527,0.733,10.77,101.9314,4.228,5.521,64.59,0,109.8,13.44,4.99,13.5
"2009-04-04 01:44:00",769504,18.14,51.81,3.226,0.792,10.75,101.9201,4.199,5.523,64.96,0,109.8,13.44,4.97,13.8
"2009-04-04 01:44:30",769505,17.81,54.72,3.647,0.864,10.81,101.9094,4.172,5.496,64.57,0,109.8,13.44,4.94,16.7
"2009-04-04 01:45:00",769506,17.87,54.25,2.395,0.933,10.78,101.9069,4.165,5.485,64.27,0,109.8,13.44,4.93,16.2
"2009-04-04 01:45:30",769507,18.32,54.6,3.824,0.656,10.88,101.9046,4.16,5.475,64.28,0,109.8,13.45,4.93,16.6
"2009-04-04 01:46:00",769508,18.08,52.31,3.992,0.703,10.51,101.9091,4.171,5.482,64.88,0,109.8,13.45,4.94,14.3
"2009-04-04 01:46:30",769509,19.49,48.94,3.746,0.97,9.9,101.9018,4.152,5.483,66.71,0,109.8,13.45,4.92,10.9
"2009-04-04 01:47:00",769510,18.94,48.98,3.323,0.891,10.51,101.882,4.102,5.476,67.66,0,109.8,13.45,4.87,11.0
"2009-04-04 01:47:30",769511,17.94,53.1,2.947,0.933,10.87,101.865,4.059,5.437,66.21,0,109.9,13.45,4.82,15.1
"2009-04-04 01:48:00",769512,18.96,51.75,2.02,0.976,10.45,101.8611,4.048,5.382,66.02,0,109.8,13.45,4.81,13.8
"2009-04-04 01:48:30",769513,19.13,50.73,3.612,0.889,10.47,101.8461,4.01,5.378,66.68,0,109.8,13.45,4.78,12.7
"2009-04-04 01:49:00",769514,19.37,51.41,3.359,0.813,10.69,101.8314,3.973,5.35,67.28,0,109.8,13.45,4.74,13.4
"2009-04-04 01:49:30",769515,18.7,51.01,3.574,0.738,10.54,101.8249,3.956,5.318,67.36,0,109.9,13.45,4.72,13.0
"2009-04-04 01:50:00",769516,18.87,50.61,3.944,0.693,10.48,101.8071,3.911,5.302,67.68,0,109.8,13.45,4.68,12.6
"2009-04-04 01:50:30",769517,18.76,52.91,3.917,0.756,10.55,101.7972,3.885,5.272,68.25,0,109.8,13.45,4.65,14.9